When you browse on this site, cookies collect data to enhance your experience and personalize the content and advertising you see.
Visit our Privacy Policy to learn more. By continuing to use the site, you agree to this use of cookies and data.
  • Em Portugal
  • Lista de países
  • Para 7 dias
  • Temperatura da água
  • Mapa do tempo
  • Widgets de tempo
  • user-avatar
    Iniciar Sessão

    Previsão horária em Nijar

    Hoje, 21 Agosto, Quarta-feira

    Tempo Temperatura Precipitação Vento Pressão Humidade
    00:00 +26°C° 0 mm 5 m/s 723 mmHg 81%
    01:00 +25°C° 0.1 mm 5 m/s 722 mmHg 82%
    02:00 +25°C° 0.1 mm 5 m/s 722 mmHg 83%
    03:00 +25°C° 0.1 mm 5 m/s 722 mmHg 84%
    04:00 +25°C° 0.1 mm 5 m/s 722 mmHg 84%
    05:00 +25°C° 0.1 mm 5 m/s 722 mmHg 84%
    06:00 +24°C° 0.1 mm 6 m/s 722 mmHg 84%
    07:00 +24°C° 0.2 mm 6 m/s 722 mmHg 83%
    08:00 +24°C° 0.2 mm 7 m/s 722 mmHg 81%
    09:00 +24°C° 0.2 mm 8 m/s 722 mmHg 79%
    10:00 +24°C° 0.1 mm 8 m/s 722 mmHg 75%
    11:00 +26°C° 0.1 mm 8 m/s 722 mmHg 71%
    12:00 +26°C° 0.1 mm 8 m/s 722 mmHg 68%
    13:00 +27°C° 0 mm 8 m/s 722 mmHg 64%
    14:00 +28°C° 0 mm 8 m/s 722 mmHg 61%
    15:00 +28°C° 0 mm 8 m/s 721 mmHg 58%
    16:00 +28°C° 0 mm 8 m/s 721 mmHg 59%
    17:00 +27°C° 0 mm 8 m/s 722 mmHg 61%
    18:00 +26°C° 0 mm 8 m/s 722 mmHg 63%
    19:00 +26°C° 0 mm 7 m/s 722 mmHg 65%
    20:00 +24°C° 0 mm 7 m/s 722 mmHg 67%
    21:00 +23°C° 0 mm 7 m/s 723 mmHg 69%
    22:00 +23°C° 0 mm 6 m/s 723 mmHg 68%
    23:00 +23°C° 0 mm 5 m/s 723 mmHg 66%

    Amanhã, 22 Agosto, Quinta-feira

    Tempo Temperatura Precipitação Vento Pressão Humidade
    00:00 +23°C° 0 mm 5 m/s 723 mmHg 65%
    01:00 +22°C° 0 mm 4 m/s 723 mmHg 63%
    02:00 +22°C° 0 mm 4 m/s 722 mmHg 62%
    03:00 +22°C° 0 mm 3 m/s 722 mmHg 61%
    04:00 +22°C° 0 mm 3 m/s 722 mmHg 61%
    05:00 +22°C° 0 mm 4 m/s 722 mmHg 61%
    06:00 +22°C° 0 mm 4 m/s 722 mmHg 61%
    07:00 +23°C° 0 mm 4 m/s 723 mmHg 58%
    08:00 +25°C° 0 mm 5 m/s 723 mmHg 55%
    09:00 +26°C° 0 mm 6 m/s 723 mmHg 52%
    10:00 +27°C° 0 mm 6 m/s 723 mmHg 50%
    11:00 +28°C° 0 mm 7 m/s 723 mmHg 49%
    12:00 +29°C° 0 mm 7 m/s 723 mmHg 47%
    13:00 +29°C° 0 mm 7 m/s 723 mmHg 46%
    14:00 +29°C° 0 mm 7 m/s 722 mmHg 45%
    15:00 +29°C° 0 mm 7 m/s 722 mmHg 44%
    16:00 +28°C° 0 mm 7 m/s 722 mmHg 48%
    17:00 +28°C° 0 mm 7 m/s 722 mmHg 52%
    18:00 +27°C° 0 mm 7 m/s 722 mmHg 55%
    19:00 +26°C° 0 mm 6 m/s 722 mmHg 57%
    20:00 +26°C° 0 mm 6 m/s 722 mmHg 59%
    21:00 +25°C° 0 mm 5 m/s 723 mmHg 60%
    22:00 +25°C° 0 mm 5 m/s 723 mmHg 60%
    23:00 +23°C° 0 mm 5 m/s 723 mmHg 59%

    Depois de amanhã, 23 Agosto, Sexta-feira

    Tempo Temperatura Precipitação Vento Pressão Humidade
    00:00 +23°C° 0 mm 5 m/s 723 mmHg 58%
    01:00 +23°C° 0 mm 5 m/s 722 mmHg 56%
    02:00 +23°C° 0 mm 4 m/s 722 mmHg 55%
    03:00 +23°C° 0 mm 4 m/s 722 mmHg 53%
    04:00 +22°C° 0 mm 4 m/s 722 mmHg 52%
    05:00 +22°C° 0 mm 4 m/s 722 mmHg 50%
    06:00 +22°C° 0 mm 4 m/s 722 mmHg 49%
    07:00 +25°C° 0 mm 4 m/s 722 mmHg 43%
    08:00 +26°C° 0 mm 5 m/s 723 mmHg 37%
    09:00 +28°C° 0 mm 5 m/s 723 mmHg 31%
    10:00 +29°C° 0 mm 6 m/s 723 mmHg 32%
    11:00 +29°C° 0 mm 6 m/s 723 mmHg 32%
    12:00 +30°C° 0 mm 7 m/s 723 mmHg 32%
    13:00 +30°C° 0 mm 7 m/s 722 mmHg 34%
    14:00 +30°C° 0 mm 6 m/s 722 mmHg 36%
    15:00 +30°C° 0 mm 6 m/s 722 mmHg 38%
    16:00 +29°C° 0 mm 6 m/s 722 mmHg 41%
    17:00 +28°C° 0 mm 5 m/s 721 mmHg 44%
    18:00 +27°C° 0 mm 5 m/s 721 mmHg 47%
    19:00 +27°C° 0 mm 4 m/s 722 mmHg 49%
    20:00 +26°C° 0 mm 4 m/s 722 mmHg 52%
    21:00 +26°C° 0 mm 3 m/s 723 mmHg 54%
    22:00 +25°C° 0 mm 3 m/s 723 mmHg 55%
    23:00 +25°C° 0 mm 2 m/s 723 mmHg 56%

    24 Agosto, Sábado

    Tempo Temperatura Precipitação Vento Pressão Humidade
    00:00 +25°C° 0 mm 2 m/s 723 mmHg 57%
    01:00 +24°C° 0 mm 2 m/s 722 mmHg 57%
    02:00 +24°C° 0 mm 1 m/s 722 mmHg 58%
    03:00 +23°C° 0 mm 1 m/s 722 mmHg 59%
    04:00 +23°C° 0 mm 1 m/s 722 mmHg 59%
    05:00 +23°C° 0 mm 1 m/s 722 mmHg 60%
    06:00 +23°C° 0 mm 1 m/s 722 mmHg 60%
    07:00 +25°C° 0 mm 2 m/s 722 mmHg 54%
    08:00 +26°C° 0 mm 2 m/s 722 mmHg 48%
    09:00 +28°C° 0 mm 2 m/s 723 mmHg 42%
    10:00 +28°C° 0 mm 3 m/s 723 mmHg 42%
    11:00 +29°C° 0 mm 3 m/s 722 mmHg 42%
    12:00 +30°C° 0 mm 4 m/s 722 mmHg 42%
    13:00 +30°C° 0 mm 4 m/s 722 mmHg 43%
    14:00 +30°C° 0 mm 3 m/s 722 mmHg 44%
    15:00 +30°C° 0 mm 3 m/s 722 mmHg 45%
    16:00 +29°C° 0 mm 3 m/s 721 mmHg 45%
    17:00 +29°C° 0 mm 3 m/s 721 mmHg 45%
    18:00 +28°C° 0 mm 3 m/s 721 mmHg 45%
    19:00 +28°C° 0 mm 2 m/s 721 mmHg 47%
    20:00 +27°C° 0 mm 2 m/s 722 mmHg 48%
    21:00 +27°C° 0 mm 2 m/s 722 mmHg 50%
    22:00 +26°C° 0 mm 1 m/s 722 mmHg 52%
    23:00 +26°C° 0 mm 1 m/s 722 mmHg 55%

    25 Agosto, Domingo

    Tempo Temperatura Precipitação Vento Pressão Humidade
    00:00 +25°C° 0 mm 1 m/s 722 mmHg 57%
    01:00 +25°C° 0 mm 1 m/s 721 mmHg 58%
    02:00 +24°C° 0 mm 1 m/s 721 mmHg 60%
    03:00 +24°C° 0 mm 2 m/s 720 mmHg 61%
    04:00 +23°C° 0 mm 1 m/s 720 mmHg 61%
    05:00 +23°C° 0 mm 1 m/s 720 mmHg 62%
    06:00 +23°C° 0 mm 1 m/s 721 mmHg 62%
    07:00 +25°C° 0 mm 2 m/s 721 mmHg 55%
    08:00 +27°C° 0 mm 2 m/s 721 mmHg 48%
    09:00 +29°C° 0 mm 3 m/s 721 mmHg 41%
    10:00 +29°C° 0 mm 4 m/s 721 mmHg 41%
    11:00 +30°C° 0 mm 4 m/s 721 mmHg 40%
    12:00 +32°C° 0 mm 5 m/s 721 mmHg 39%
    13:00 +32°C° 0 mm 4 m/s 720 mmHg 39%
    14:00 +32°C° 0 mm 4 m/s 720 mmHg 39%
    15:00 +32°C° 0 mm 4 m/s 720 mmHg 39%
    16:00 +30°C° 0 mm 4 m/s 720 mmHg 41%
    17:00 +29°C° 0 mm 4 m/s 720 mmHg 43%
    18:00 +29°C° 0 mm 3 m/s 720 mmHg 44%
    19:00 +28°C° 0 mm 3 m/s 720 mmHg 47%
    20:00 +28°C° 0 mm 3 m/s 720 mmHg 49%
    21:00 +27°C° 0 mm 2 m/s 721 mmHg 52%
    22:00 +27°C° 0 mm 2 m/s 721 mmHg 53%
    23:00 +27°C° 0 mm 2 m/s 721 mmHg 54%

    26 Agosto, Segunda-feira

    Tempo Temperatura Precipitação Vento Pressão Humidade
    00:00 +26°C° 0 mm 2 m/s 721 mmHg 55%
    01:00 +26°C° 0 mm 2 m/s 720 mmHg 57%
    02:00 +26°C° 0 mm 2 m/s 720 mmHg 59%
    03:00 +25°C° 0 mm 2 m/s 720 mmHg 61%
    04:00 +25°C° 0 mm 2 m/s 720 mmHg 62%
    05:00 +25°C° 0 mm 2 m/s 720 mmHg 63%
    06:00 +25°C° 0 mm 2 m/s 720 mmHg 64%
    07:00 +26°C° 0.1 mm 3 m/s 721 mmHg 58%
    08:00 +27°C° 0.1 mm 3 m/s 721 mmHg 51%
    09:00 +28°C° 0.1 mm 4 m/s 722 mmHg 45%
    10:00 +28°C° 0.2 mm 4 m/s 722 mmHg 40%
    11:00 +29°C° 0.2 mm 4 m/s 722 mmHg 36%
    12:00 +30°C° 0.2 mm 4 m/s 723 mmHg 31%
    13:00 +32°C° 0 mm 5 m/s 722 mmHg 34%
    14:00 +32°C° 0 mm 7 m/s 722 mmHg 36%
    15:00 +32°C° 0 mm 8 m/s 722 mmHg 39%
    16:00 +30°C° 0 mm 6 m/s 722 mmHg 42%
    17:00 +30°C° 0 mm 4 m/s 721 mmHg 44%
    18:00 +29°C° 0 mm 2 m/s 721 mmHg 47%
    19:00 +28°C° 0 mm 3 m/s 722 mmHg 53%
    20:00 +27°C° 0 mm 3 m/s 722 mmHg 59%
    21:00 +26°C° 0 mm 4 m/s 723 mmHg 65%
    22:00 +26°C° 0 mm 4 m/s 723 mmHg 67%
    23:00 +25°C° 0 mm 3 m/s 723 mmHg 69%
    Mostrar mais